STARLINK-2422 (47832 NORAD) Tracking and Keplerian Element Data

This shows tracking and keplerian element data for the satellite.

Feedback or suggestion? Click here.




ElementValue
Catalog47832
NameSTARLINK-2422
Epoch Orbit1722
Epoch Day173.85370764
Epoch Year2021
RAAN56.74
Inclination53.0564
Eccentricity0.0002143
Argument of Perigee87.8801
Mean Anonmoly272.2433
Mean Motion15.06391296
Decay Rate-7E-06
L11 47832U 21018AX 21173.85370764 -.00000700 00000-0 -28101-4 0 9995
L22 47832 53.0564 56.7400 0002143 87.8801 272.2433 15.06391296 17220

Live tracking and technical data element details for STARLINK-2422 (NORAD 47832). STARLINK-2422 can be tracked NOW for your location showing map with azimuth and elevation plus other details from your city location.

Track the satellite on the map from your city or location and see movement details for azimuth, elevation, latitude, longitude, range, height, and movement on the map or in text.







IsCatalogInMostPopularTable: catalog: 47832, numindb: 47
Update: records affected: 1



GetName: 47832 STARLINK-2422

Hit Count: updated at: Thu, 24 Jun 2021 02:27:59 GMT